SCP
0 0 0 0 0 0 0 0 0 0 0 0 0 0 0 0 0 0 0 0 0 0 0 0 0 0 0 0 0 0 0 0 0 0 0 0 0 0 0 0 0 0 0
0 0 0 0 0 0 0 0 0 0 0 0 0 0 0 0 0 0 0 0 0 0 0 0 0 0 0 0 0 0 0 0 0 0 0 0 0 0 0 0 0 0 0
0 0 0 0 0 0 0 0 0 0 0 0 0 0 0 0 0 0 0 0 0 0 0 0 0 0 0 0 0 0 0 0 0 0 0 0 0 0 0 0 0 0 0
0 0 0 0 0 0 0 0 0 0 0 0 0 0 0 0 0 0 0 0 0 0 0 0 0 0 0 0 0 0 0 0 0 0 0 0 0 0 0 0 0 0 0
0 0 0 0 0 0 0 0 0 0 0 0 0 0 0 0 0 0 0 0 0 0 0 0 0 0 0 0 0 0 0 0 0 0 0 0 0 0 0 0 0 0 0
0 0 0 0 0 0 0 0 0 0 0 0 0 0 0 0 0 0 0 0 0 0 0 0 0 0 0 0 0 0 0 0 0 0 0 0 0 0 0 0 0 0 0
0 0 0 0 0 0 0 0 0 0 0 0 0 0 0 0 0 0 0 0 0 0 0 0 0 0 0 0 0 0 0 0 0 0 0 0 0 0 0 0 0 0 0
0 0 0 0 0 0 0 0 0 0 0 0 0 0 0 0 0 0 0 0 0 0 0 0 0 1 0 0 0 0 0 0 0 0 0 0 0 0 0 0 0 0 0
1 1 1 0 0 0 0 0 0 0 0 0 0 0 0 0 0 0 0 0 0 0 0 0 0 1 1 1 0 0 0 0 0 0 0 0 0 0 0 0 0 0 0
1 1 1 1 0 0 0 0 0 0 0 0 0 0 0 0 0 0 0 0 0 0 0 0 0 0 1 1 1 1 0 0 0 0 0 0 0 0 0 0 0 0 0
1 1 1 1 1 0 0 0 0 0 0 0 0 0 0 0 0 0 0 0 0 0 0 0 0 0 0 0 0 0 0 0 0 0 0 0 0 0 0 0 0 0 0
1 1 1 1 1 1 1 1 1 0 0 0 0 0 0 0 0 0 0 0 0 0 0 0 0 0 0 0 0 0 0 0 0 0 0 0 0 0 0 0 0 0 0
1 1 1 1 1 1 1 1 1 1 1 0 0 0 0 0 0 0 0 0 0 0 0 0 0 0 0 0 0 0 0 0 0 0 0 0 0 0 0 0 0 0 0
1 1 1 1 1 1 1 1 1 1 1 1 0 0 0 0 0 0 0 0 0 0 0 0 0 0 0 0 0 0 0 0 0 0 0 0 0 0 0 0 0 0 0
1 1 1 1 1 1 1 0 0 0 1 0 0 0 0 0 0 0 0 0 0 0 0 0 0 0 0 0 0 0 0 0 0 0 0 0 0 0 0 0 0 0 0
1 1 1 1 1 1 1 0 0 0 0 0 0 0 0 0 0 0 0 0 0 0 0 0 0 0 0 0 0 0 0 0 0 0 0 0 0 0 0 0 0 0 0
1 1 1 1 1 1 1 1 0 0 0 0 0 0 0 0 0 0 0 0 0 0 0 0 0 0 0 0 0 0 0 0 0 0 0 0 0 0 0 0 0 0 0
1 1 1 1 1 1 1 1 0 0 0 0 0 0 0 0 0 0 0 0 0 0 0 0 0 0 0 0 0 0 0 0 0 0 0 0 0 0 0 0 0 0 0
1 1 1 1 1 1 1 1 1 0 0 0 0 0 0 0 0 0 0 0 0 0 0 0 0 0 0 0 0 0 0 0 0 0 0 0 0 0 0 0 0 0 0
1 1 1 1 1 1 1 1 1 1 1 0 0 0 0 0 0 0 0 0 0 0 0 0 0 0 0 0 0 0 0 0 0 0 0 0 0 0 0 0 0 0 0
1 1 1 1 1 0 0 0 0 1 1 1 0 0 0 0 0 0 0 0 0 0 0 0 0 0 0 0 0 0 0 0 0 0 0 0 0 0 0 0 0 0 0
1 1 1 1 0 0 0 0 0 0 1 0 0 0 0 0 0 0 0 0 0 0 0 0 0 0 0 0 0 0 0 0 0 0 0 0 0 0 0 0 0 0 0
1 1 1 1 0 0 0 0 0 0 0 0 0 0 0 0 0 0 0 0 0 0 0 0 0 0 0 0 0 0 0 0 0 0 0 0 0 0 0 0 0 0 0
1 1 1 1 0 0 0 0 0 0 0 0 0 0 0 0 0 0 0 0 0 0 0 0 0 0 0 0 0 0 0 0 0 0 0 0 0 0 0 0 0 0 -0
1 1 1 1 0 0 0 0 0 0 0 0 0 0 0 0 0 0 0 0 0 0 0 0 0 0 0 0 0 0 0 0 0 0 0 0 0 0 0 0 0 0 0
1 1 1 1 0 0 0 0 0 0 0 0 0 0 0 0 0 0 0 0 0 0 0 0 0 0 0 0 0 0 0 0 0 0 0 0 0 0 0 0 0 0 0
Wind_Speed
3 3 2 2 3 3 3 2 1 1 1 0 0 1 2 3 4 6 6 11 11 9 9 9 8 8 7 7 7 6 6 7 6 6 6 6 6 5 5 5 5 4 4
3 3 2 1 2 2 2 2 2 2 1 1 0 1 1 1 2 5 7 8 11 11 10 10 9 9 8 8 8 8 7 7 7 7 6 7 6 6 6 6 5 5 5
4 3 3 2 2 2 2 1 1 2 2 2 2 2 1 1 2 3 6 6 7 10 11 11 11 10 10 10 9 9 9 8 8 8 8 7 7 7 7 7 7 6 6
4 3 3 3 3 2 3 2 2 1 1 1 1 2 1 2 3 4 5 6 6 7 10 13 12 11 12 11 11 11 10 10 9 9 9 9 9 8 8 8 8 7 7
4 3 1 2 2 2 2 3 2 1 1 1 2 2 3 3 4 5 5 6 6 6 7 11 14 13 13 13 13 12 12 11 11 11 11 11 11 10 10 9 9 9 9
4 3 2 3 3 2 2 1 2 1 1 2 3 2 2 3 4 3 4 4 5 7 8 9 9 10 15 14 13 14 14 13 13 13 13 12 12 12 11 11 11 10 10
4 3 2 3 3 2 2 3 2 2 3 2 2 2 3 4 4 4 4 4 5 5 6 8 8 7 7 14 14 14 15 14 14 13 13 13 13 12 12 12 11 11 11
5 5 4 3 4 2 2 3 2 2 3 2 2 2 2 2 2 5 4 4 5 4 5 8 7 7 6 6 9 15 15 15 14 14 13 13 13 12 12 13 12 12 12
6 5 4 4 3 4 3 4 4 4 3 2 2 2 1 2 1 2 4 4 3 2 2 3 6 7 7 5 7 13 16 14 15 15 14 13 13 13 13 13 13 13 13
6 6 5 5 4 4 3 5 5 4 4 3 2 2 3 1 1 2 2 1 2 3 3 4 4 4 5 4 6 10 14 14 13 13 13 12 12 12 13 13 14 14 14
6 6 6 5 5 4 4 4 3 3 3 3 3 2 3 2 3 2 3 2 2 2 3 4 3 3 4 4 4 6 11 12 12 12 11 11 10 11 12 13 13 14 14
5 6 6 5 5 5 4 4 3 4 3 3 3 2 2 2 2 3 4 3 3 3 3 3 3 2 2 2 4 5 9 10 10 10 9 10 10 9 10 11 12 12 12
4 5 6 5 4 5 5 4 4 4 5 5 4 3 3 3 2 2 3 3 3 2 1 1 1 1 1 1 1 4 6 7 7 7 7 7 8 7 8 8 9 10 10
4 5 5 5 5 5 6 5 4 5 4 4 5 4 3 3 2 2 2 2 3 2 2 2 1 1 0 1 1 3 2 6 6 6 6 6 6 6 6 6 6 6 6
4 5 5 5 5 5 5 5 4 4 4 4 4 4 3 3 2 2 1 1 2 3 3 2 1 0 0 1 2 2 2 5 6 5 4 4 4 4 4 3 3 3 3
3 3 4 3 4 4 4 4 3 3 3 3 3 3 3 3 2 2 2 2 2 2 3 2 1 1 1 0 2 2 2 5 5 5 4 4 3 3 3 2 2 2 2
3 2 3 3 3 3 2 2 2 2 3 3 3 3 3 3 2 2 2 2 2 2 4 3 1 1 0 0 1 0 1 2 3 5 5 5 4 4 3 3 2 2 1
2 2 2 2 2 2 2 2 2 1 1 1 1 1 2 1 1 1 1 1 1 1 2 3 2 1 1 0 1 1 1 1 2 3 5 6 6 5 4 4 4 4 4
2 2 2 2 1 1 1 1 0 0 1 0 1 1 1 1 1 1 1 1 1 1 1 1 1 1 1 1 1 1 1 0 1 2 4 5 6 6 6 5 5 5 4
2 2 2 2 2 1 2 2 1 1 2 2 2 2 2 3 2 2 1 2 2 1 1 1 1 1 1 1 1 1 1 1 1 1 2 4 7 7 6 6 6 5 4
3 3 2 2 2 2 2 2 2 2 3 3 4 4 6 8 8 5 3 3 2 2 2 2 2 2 2 2 2 2 1 1 1 1 1 1 3 3 3 3 4 4 4
4 4 4 4 4 3 4 5 3 3 3 4 4 5 5 7 9 10 10 10 8 4 3 3 3 3 3 3 3 2 2 1 1 1 0 0 1 2 2 2 4 4 4
5 5 5 5 6 6 7 7 6 4 5 5 5 4 5 6 6 6 7 8 9 10 7 4 4 3 3 4 3 3 3 2 2 2 1 1 1 1 1 2 5 5 5
5 5 6 6 6 7 8 7 6 5 6 7 7 6 6 6 6 5 6 6 7 7 6 5 4 4 4 4 3 2 1 1 2 3 3 1 1 1 1 1 4 5 5
6 6 6 6 6 6 8 7 5 5 6 7 7 8 7 6 8 7 5 5 5 5 6 7 5 4 6 8 7 4 4 2 2 3 4 2 2 1 1 1 2 4 4
6 6 7 7 7 7 8 8 6 4 5 5 6 7 10 8 8 7 4 4 4 3 3 3 3 3 3 5 8 6 4 3 3 3 5 4 3 2 2 1 1 1 1
Wind_Direction
138 131 122 151 164 163 168 177 164 143 97 82 246 83 58 82 122 126 141 161 163 168 173 175 179 178 179 181 182 181 179 178 178 181 184 183 182 181 180 176 174 173 171
127 130 143 160 159 157 148 163 161 144 161 231 187 131 157 150 133 139 151 166 174 177 182 185 188 191 193 195 195 195 196 195 192 192 195 196 197 198 199 198 195 193 193
139 153 160 178 176 151 137 150 175 172 189 205 189 196 200 182 162 151 157 166 176 188 192 194 196 199 202 206 206 206 206 206 203 203 206 208 208 209 211 212 210 208 208
160 173 177 185 162 162 159 179 209 191 190 202 208 215 200 192 191 191 184 178 176 184 196 201 202 205 209 213 213 213 213 211 211 212 214 215 216 216 218 220 219 218 218
174 195 181 138 172 184 186 194 152 187 196 214 235 212 214 212 207 213 202 193 185 179 182 197 204 208 213 216 218 219 218 217 217 217 219 220 220 220 221 224 224 222 222
184 198 187 176 211 201 190 161 149 192 232 237 256 238 233 224 211 210 215 207 191 194 191 183 194 210 217 219 221 222 221 220 220 221 223 224 225 223 223 225 226 226 226
188 206 220 174 216 220 197 188 187 205 226 231 253 265 262 248 222 211 216 213 213 205 190 174 187 196 204 218 221 223 223 224 222 223 225 226 227 225 224 227 229 229 229
198 203 213 207 206 214 217 220 206 228 244 215 223 250 257 260 250 227 209 212 217 207 197 193 192 194 196 191 211 218 222 224 225 225 226 226 227 226 226 227 228 229 229
204 219 201 220 215 215 205 213 214 219 243 250 223 223 252 255 286 256 227 226 209 199 216 225 203 195 202 192 193 211 217 220 224 226 226 226 226 226 227 229 230 230 229
206 210 211 216 223 233 211 216 214 214 222 246 243 223 233 258 266 299 281 251 224 225 228 245 233 207 202 195 197 195 203 211 219 226 230 231 229 227 226 230 234 233 231
210 213 208 211 217 230 228 233 224 220 222 232 246 233 233 237 223 231 264 267 256 238 240 244 246 228 204 195 192 191 193 202 210 219 227 231 232 231 230 231 235 237 235
209 215 214 205 212 224 229 231 226 223 230 243 258 262 244 231 226 225 246 261 260 246 229 229 234 234 226 196 201 192 187 194 203 214 224 230 233 236 237 236 238 241 240
209 211 216 207 215 223 224 225 222 225 223 229 237 250 256 257 253 248 253 267 272 276 260 257 247 232 244 184 167 176 177 182 192 207 220 228 233 235 239 241 243 245 244
221 208 206 207 216 224 227 220 225 225 223 225 238 242 254 264 266 263 258 270 283 290 286 274 281 208 189 107 115 175 166 168 179 194 208 220 227 230 237 241 244 245 246
222 205 203 210 214 220 228 222 224 226 219 221 233 236 245 258 263 275 276 255 252 270 277 276 282 305 140 133 137 141 103 140 162 177 191 200 209 215 219 223 229 233 239
226 211 196 208 221 223 226 227 230 227 220 226 228 234 241 252 247 248 255 252 240 246 265 283 289 313 350 359 114 119 123 120 156 172 176 171 168 168 173 184 194 207 217
212 205 189 207 212 215 214 219 232 226 227 237 241 228 236 249 253 259 255 244 239 236 253 275 278 300 359 65 109 139 150 141 139 165 170 165 155 144 130 134 140 147 148
197 190 174 180 185 194 196 200 226 223 219 232 243 241 257 256 254 281 295 296 269 239 241 271 292 309 317 285 208 210 236 187 138 137 155 155 150 142 129 117 110 103 93
173 160 139 138 158 171 152 133 159 165 139 84 36 54 357 23 22 17 6 340 321 301 234 251 298 326 333 337 331 297 274 268 194 147 138 147 141 126 119 116 111 105 98
152 138 130 133 131 126 113 109 110 89 77 70 59 54 51 54 37 33 34 13 8 15 33 39 1 355 348 338 338 319 317 318 327 96 87 113 126 123 122 119 116 114 110
125 115 117 104 95 88 72 82 102 97 89 82 71 64 64 70 61 51 49 27 18 29 35 39 31 22 7 358 342 324 324 356 21 37 122 157 142 133 131 130 123 119 119
93 95 91 83 75 71 54 59 67 72 75 75 70 67 76 72 67 63 59 52 49 49 41 40 40 32 13 359 345 344 341 350 339 351 24 340 102 118 134 130 135 139 141
87 84 83 85 80 55 53 62 64 71 70 65 63 56 58 60 61 61 59 57 54 52 58 65 58 36 22 4 358 13 16 7 355 354 25 24 57 91 106 132 157 157 160
83 80 78 78 76 56 48 54 62 76 75 69 62 55 58 52 45 54 61 59 56 48 53 67 65 51 41 17 3 1 8 30 57 34 17 10 20 31 73 127 179 174 172
86 83 82 80 77 59 44 49 66 85 81 74 66 59 59 56 37 52 69 70 68 61 61 71 81 72 51 38 25 20 15 35 42 38 17 6 2 360 68 99 158 180 188
90 86 78 71 73 65 46 50 64 94 91 83 75 68 60 55 42 48 68 71 68 55 56 63 68 59 54 46 39 35 25 24 32 31 12 2 360 3 11 38 39 133 206